Back to catalog

STARLINK-36511

AliveCommunicationsVLEO
NORAD 67451·PAYLOAD·🇺🇸 United States

Launched Jan 14, 2026 from Cape Canaveral Space Force Station

Loading…

Next Passes (next 24 hours)

TLE

FreshSource: CelesTrak SupGP

Epoch: Sep 14, 2026, 15:05 UTC

1 67451C 26008G   26257.62895833 -.00020041  00000+0 -72559-3 0  2571
2 67451  43.0024 218.5344 0001540 275.7542 104.7468 15.27602181    11

Track STARLINK-36511 in real time with AllMySat

Download on the App Store